Meteo pe oră la Alimgulovo

Astăzi, 23 Ianuarie, Sâmbătă

Timp Temperatura Precipitaţii Vânt Presiune Umiditate
00:00 -20°C° 0 mm 0 m/s 733 mmHg 99%
01:00 -21°C° 0 mm 0 m/s 734 mmHg 99%
02:00 -21°C° 0 mm 0 m/s 734 mmHg 99%
03:00 -22°C° 0 mm 0 m/s 735 mmHg 99%
04:00 -22°C° 0 mm 1 m/s 735 mmHg 99%
05:00 -22°C° 0 mm 1 m/s 736 mmHg 98%
06:00 -22°C° 0 mm 1 m/s 737 mmHg 96%
07:00 -22°C° 0 mm 1 m/s 738 mmHg 95%
08:00 -22°C° 0 mm 1 m/s 738 mmHg 93%
09:00 -24°C° 0 mm 2 m/s 739 mmHg 92%
10:00 -23°C° 0 mm 2 m/s 739 mmHg 90%
11:00 -21°C° 0 mm 2 m/s 739 mmHg 89%
12:00 -22°C° 0 mm 3 m/s 740 mmHg 89%
13:00 -19°C° 0 mm 3 m/s 740 mmHg 88%
14:00 -19°C° 0 mm 3 m/s 740 mmHg 89%
15:00 -19°C° 0 mm 3 m/s 740 mmHg 89%
16:00 -20°C° 0 mm 4 m/s 740 mmHg 90%
17:00 -20°C° 0.1 mm 4 m/s 740 mmHg 92%
18:00 -20°C° 0.1 mm 4 m/s 740 mmHg 93%
19:00 -20°C° 0.1 mm 4 m/s 739 mmHg 95%
20:00 -20°C° 0.2 mm 4 m/s 739 mmHg 95%
21:00 -20°C° 0.2 mm 4 m/s 739 mmHg 95%
22:00 -20°C° 0.2 mm 4 m/s 739 mmHg 95%
23:00 -20°C° 0.3 mm 4 m/s 739 mmHg 95%

Mâine, 24 Ianuarie, Duminică

Timp Temperatura Precipitaţii Vânt Presiune Umiditate
00:00 -19°C° 0.3 mm 4 m/s 738 mmHg 95%
01:00 -19°C° 0.3 mm 4 m/s 738 mmHg 95%
02:00 -19°C° 0.3 mm 4 m/s 738 mmHg 95%
03:00 -18°C° 0.3 mm 4 m/s 737 mmHg 95%
04:00 -18°C° 0.3 mm 4 m/s 737 mmHg 95%
05:00 -16°C° 0.3 mm 3 m/s 737 mmHg 95%
06:00 -15°C° 0.3 mm 3 m/s 737 mmHg 95%
07:00 -15°C° 0.3 mm 3 m/s 737 mmHg 95%
08:00 -13°C° 0.3 mm 3 m/s 737 mmHg 95%
09:00 -12°C° 0.3 mm 3 m/s 737 mmHg 95%
10:00 -9°C° 0.3 mm 2 m/s 737 mmHg 95%
11:00 -8°C° 0.5 mm 3 m/s 737 mmHg 96%
12:00 -6°C° 0.5 mm 3 m/s 738 mmHg 97%
13:00 -4°C° 0.5 mm 3 m/s 738 mmHg 98%
14:00 -4°C° 0.4 mm 4 m/s 738 mmHg 97%
15:00 -4°C° 0.4 mm 4 m/s 738 mmHg 97%
16:00 -3°C° 0.4 mm 4 m/s 738 mmHg 97%
17:00 -4°C° 0.3 mm 4 m/s 738 mmHg 97%
18:00 -4°C° 0.3 mm 3 m/s 738 mmHg 97%
19:00 -5°C° 0.3 mm 3 m/s 739 mmHg 97%
20:00 -4°C° 0.3 mm 3 m/s 739 mmHg 97%
21:00 -4°C° 0.3 mm 3 m/s 739 mmHg 97%
22:00 -4°C° 0.3 mm 3 m/s 740 mmHg 97%
23:00 -4°C° 0.2 mm 3 m/s 740 mmHg 97%

Poimâine, 25 Ianuarie, Luni

Timp Temperatura Precipitaţii Vânt Presiune Umiditate
00:00 -4°C° 0.2 mm 3 m/s 740 mmHg 97%
01:00 -4°C° 0.2 mm 3 m/s 741 mmHg 97%
02:00 -4°C° 0.1 mm 3 m/s 741 mmHg 97%
03:00 -4°C° 0.1 mm 3 m/s 741 mmHg 97%
04:00 -3°C° 0.1 mm 4 m/s 741 mmHg 97%
05:00 -2°C° 0 mm 3 m/s 741 mmHg 97%
06:00 -2°C° 0 mm 3 m/s 742 mmHg 97%
07:00 -2°C° 0 mm 2 m/s 742 mmHg 97%
08:00 -2°C° 0.1 mm 2 m/s 742 mmHg 97%
09:00 -2°C° 0.1 mm 3 m/s 742 mmHg 97%
10:00 -2°C° 0.1 mm 3 m/s 743 mmHg 96%
11:00 -2°C° 0 mm 3 m/s 742 mmHg 96%
12:00 -2°C° 0 mm 3 m/s 742 mmHg 96%
13:00 -2°C° 0 mm 3 m/s 742 mmHg 96%
14:00 -2°C° 0 mm 3 m/s 742 mmHg 96%
15:00 -2°C° 0 mm 3 m/s 742 mmHg 96%
16:00 -4°C° 0 mm 3 m/s 742 mmHg 95%
17:00 -3°C° 0 mm 2 m/s 742 mmHg 96%
18:00 -4°C° 0 mm 2 m/s 742 mmHg 96%
19:00 -5°C° 0 mm 2 m/s 742 mmHg 96%
20:00 -5°C° 0 mm 2 m/s 742 mmHg 96%
21:00 -5°C° 0 mm 2 m/s 742 mmHg 96%
22:00 -5°C° 0 mm 2 m/s 742 mmHg 96%
23:00 -6°C° 0 mm 2 m/s 742 mmHg 96%

26 Ianuarie, Marţi

Timp Temperatura Precipitaţii Vânt Presiune Umiditate
00:00 -7°C° 0 mm 2 m/s 742 mmHg 96%
01:00 -7°C° 0 mm 2 m/s 742 mmHg 96%
02:00 -7°C° 0 mm 2 m/s 742 mmHg 96%
03:00 -7°C° 0 mm 2 m/s 742 mmHg 96%
04:00 -7°C° 0 mm 2 m/s 742 mmHg 96%
05:00 -7°C° 0 mm 2 m/s 742 mmHg 96%
06:00 -7°C° 0 mm 2 m/s 742 mmHg 96%
07:00 -7°C° 0 mm 2 m/s 742 mmHg 96%
08:00 -8°C° 0 mm 3 m/s 742 mmHg 96%
09:00 -7°C° 0 mm 3 m/s 742 mmHg 96%
10:00 -7°C° 0 mm 3 m/s 742 mmHg 96%
11:00 -7°C° 0 mm 4 m/s 742 mmHg 95%
12:00 -7°C° 0 mm 4 m/s 742 mmHg 94%
13:00 -5°C° 0 mm 4 m/s 742 mmHg 93%
14:00 -7°C° 0 mm 4 m/s 742 mmHg 92%
15:00 -7°C° 0 mm 3 m/s 742 mmHg 92%
16:00 -8°C° 0 mm 3 m/s 742 mmHg 92%
17:00 -9°C° 0 mm 3 m/s 742 mmHg 91%
18:00 -9°C° 0 mm 2 m/s 742 mmHg 90%
19:00 -12°C° 0 mm 2 m/s 742 mmHg 89%
20:00 -12°C° 0 mm 2 m/s 742 mmHg 89%
21:00 -12°C° 0 mm 2 m/s 742 mmHg 88%
22:00 -13°C° 0 mm 2 m/s 742 mmHg 88%
23:00 -13°C° 0 mm 2 m/s 742 mmHg 87%

27 Ianuarie, Miercuri

Timp Temperatura Precipitaţii Vânt Presiune Umiditate
00:00 -13°C° 0 mm 2 m/s 741 mmHg 87%
01:00 -14°C° 0 mm 3 m/s 741 mmHg 87%
02:00 -14°C° 0 mm 3 m/s 741 mmHg 87%
03:00 -14°C° 0 mm 3 m/s 741 mmHg 87%
04:00 -15°C° 0 mm 3 m/s 741 mmHg 86%
05:00 -14°C° 0 mm 3 m/s 741 mmHg 86%
06:00 -14°C° 0 mm 3 m/s 741 mmHg 87%
07:00 -14°C° 0 mm 3 m/s 741 mmHg 87%
08:00 -14°C° 0 mm 3 m/s 741 mmHg 87%
09:00 -13°C° 0 mm 3 m/s 741 mmHg 87%
10:00 -12°C° 0 mm 3 m/s 741 mmHg 87%
11:00 -10°C° 0 mm 3 m/s 741 mmHg 86%
12:00 -10°C° 0 mm 4 m/s 741 mmHg 86%
13:00 -9°C° 0 mm 4 m/s 741 mmHg 85%
14:00 -9°C° 0 mm 4 m/s 741 mmHg 86%
15:00 -10°C° 0 mm 4 m/s 740 mmHg 87%
16:00 -9°C° 0 mm 3 m/s 740 mmHg 87%
17:00 -9°C° 0 mm 3 m/s 740 mmHg 87%
18:00 -10°C° 0 mm 3 m/s 740 mmHg 87%
19:00 -12°C° 0 mm 3 m/s 740 mmHg 87%
20:00 -10°C° 0 mm 3 m/s 740 mmHg 87%
21:00 -10°C° 0 mm 3 m/s 740 mmHg 87%
22:00 -10°C° 0 mm 3 m/s 740 mmHg 86%
23:00 -10°C° 0 mm 3 m/s 740 mmHg 86%

28 Ianuarie, Joi

Timp Temperatura Precipitaţii Vânt Presiune Umiditate
00:00 -10°C° 0 mm 3 m/s 739 mmHg 86%
01:00 -10°C° 0 mm 3 m/s 739 mmHg 85%
02:00 -10°C° 0 mm 3 m/s 739 mmHg 85%
03:00 -10°C° 0 mm 3 m/s 739 mmHg 84%
04:00 -10°C° 0 mm 3 m/s 739 mmHg 84%
05:00 -12°C° 0 mm 3 m/s 738 mmHg 84%
06:00 -12°C° 0 mm 3 m/s 738 mmHg 83%
07:00 -12°C° 0 mm 3 m/s 738 mmHg 83%
08:00 -10°C° 0 mm 3 m/s 737 mmHg 82%
09:00 -9°C° 0 mm 3 m/s 737 mmHg 82%
10:00 -10°C° 0 mm 4 m/s 737 mmHg 81%
11:00 -8°C° 0 mm 4 m/s 737 mmHg 80%
12:00 -7°C° 0 mm 5 m/s 736 mmHg 79%
13:00 -6°C° 0 mm 6 m/s 736 mmHg 78%
14:00 -6°C° 0 mm 6 m/s 735 mmHg 78%
15:00 -8°C° 0 mm 6 m/s 735 mmHg 79%
16:00 -8°C° 0 mm 6 m/s 734 mmHg 79%
17:00 -9°C° 0 mm 6 m/s 734 mmHg 79%
18:00 -8°C° 0 mm 5 m/s 733 mmHg 79%
19:00 -8°C° 0 mm 5 m/s 733 mmHg 79%
20:00 -10°C° 0 mm 5 m/s 733 mmHg 79%
21:00 -10°C° 0 mm 5 m/s 732 mmHg 79%
22:00 -10°C° 0 mm 6 m/s 732 mmHg 79%
Arată mai mult

Formular de consimțământ

Meteoprog și furnizorii noștri de servicii pot stoca și accesa date personale, precum cookies, identificatori de dispozitiv sau alte tehnologii similare pe dispozitivul dumneavoastră și procesa astfel de date pentru a personaliza conținutul și reclamele, dar și pentru a oferi caracteristici de social media și pentru a analiza traficul.

  • Stocarea și/sau accesarea informațiilor pe dispozitivul dumneavoastră

    Cookies, identificatori de dispozitiv sau alte informații pot fi stocate sau accesate pe dispozitiv în scopurile indicate mai sus.

  • Reclame și conținut personalizat, evaluarea reclamelor și a conținutului, informații despre audiențe și dezvoltarea produselor

    Reclamele și conținutul pot fi personalizate pe baza unui profil. Pot fi adăugate date suplimentare pentru a personaliza mai bine reclamele și conținutul. Performanța reclamelor și conținutului poate fi măsurată. Pot fi obținute informații despre utilizatorii care au văzut reclamele și conținutul. Aceste date pot fi utilizate pentru a dezvolta sau îmbunătăți experiența utilizatorilor, sistemele și software-ul.

Dând clic pe ‘Sunt de acord’, permiteți utilizarea cookie-urilor menționate, a identificatorilor de dispozitiv, balizelor web sau altor tehnologii similare. Setările pot fi modificate din browser-ul dispozitivului dumneavoastră.

În anumite scopuri, interesele legitime pot prima asupra consimțământului. Puteți citi mai multe informații în acest sens în Politica privind Confidențialitatea Datelor și Cookie.